Year,Month,Day,Hour,Minute,Value (Times are PST for temperature in C)
2016,08,20,00,00,18.70
2016,08,20,00,01,18.70
2016,08,20,00,02,18.70
2016,08,20,00,03,18.70
2016,08,20,00,04,18.60
2016,08,20,00,05,18.60
2016,08,20,00,06,18.60
2016,08,20,00,07,18.60
2016,08,20,00,08,18.60
2016,08,20,00,09,18.50
2016,08,20,00,10,18.50
2016,08,20,00,11,18.50
2016,08,20,00,12,18.40
2016,08,20,00,13,18.40
2016,08,20,00,14,18.40
2016,08,20,00,15,18.40
2016,08,20,00,16,18.40
2016,08,20,00,17,18.30
2016,08,20,00,18,18.30
2016,08,20,00,19,18.30
2016,08,20,00,20,18.30
2016,08,20,00,21,18.30
2016,08,20,00,22,18.20
2016,08,20,00,23,18.20
2016,08,20,00,24,18.20
2016,08,20,00,25,18.20
2016,08,20,00,26,18.20
2016,08,20,00,27,18.10
2016,08,20,00,28,18.10
2016,08,20,00,29,18.00
2016,08,20,00,30,18.00
2016,08,20,00,31,17.90
2016,08,20,00,32,17.90
2016,08,20,00,33,17.90
2016,08,20,00,34,17.90
2016,08,20,00,35,17.80
2016,08,20,00,36,17.80
2016,08,20,00,37,17.80
2016,08,20,00,38,17.80
2016,08,20,00,39,17.80
2016,08,20,00,40,17.80
2016,08,20,00,41,17.80
2016,08,20,00,42,17.80
2016,08,20,00,43,17.80
2016,08,20,00,44,17.80
2016,08,20,00,45,17.80
2016,08,20,00,46,17.70
2016,08,20,00,47,17.70
2016,08,20,00,48,17.70
2016,08,20,00,49,17.60
2016,08,20,00,50,17.60
2016,08,20,00,51,17.60
2016,08,20,00,52,17.50
2016,08,20,00,53,17.50
2016,08,20,00,54,17.50
2016,08,20,00,55,17.40
2016,08,20,00,56,17.40
2016,08,20,00,57,17.40
2016,08,20,00,58,17.40
2016,08,20,00,59,17.30
2016,08,20,01,00,17.30
2016,08,20,01,01,17.30
2016,08,20,01,02,17.30
2016,08,20,01,03,17.30
2016,08,20,01,04,17.30
2016,08,20,01,05,17.20
2016,08,20,01,06,17.20
2016,08,20,01,07,17.10
2016,08,20,01,08,17.10
2016,08,20,01,09,17.10
2016,08,20,01,10,17.10
2016,08,20,01,11,17.10
2016,08,20,01,12,17.10
2016,08,20,01,13,17.00
2016,08,20,01,14,17.00
2016,08,20,01,15,17.00
2016,08,20,01,16,17.00
2016,08,20,01,17,17.00
2016,08,20,01,18,17.00
2016,08,20,01,19,16.90
2016,08,20,01,20,16.90
2016,08,20,01,21,16.90
2016,08,20,01,22,16.90
2016,08,20,01,23,16.90
2016,08,20,01,24,16.90
2016,08,20,01,25,16.80
2016,08,20,01,26,16.80
2016,08,20,01,27,16.80
2016,08,20,01,28,16.80
2016,08,20,01,29,16.80
2016,08,20,01,30,16.80
2016,08,20,01,31,16.80
2016,08,20,01,32,16.80
2016,08,20,01,33,16.80
2016,08,20,01,34,16.70
2016,08,20,01,35,16.70
2016,08,20,01,36,16.70
2016,08,20,01,37,16.70
2016,08,20,01,38,16.70
2016,08,20,01,39,16.70
2016,08,20,01,40,16.60
2016,08,20,01,41,16.60
2016,08,20,01,42,16.60
2016,08,20,01,43,16.60
2016,08,20,01,44,16.60
2016,08,20,01,45,16.60
2016,08,20,01,46,16.50
2016,08,20,01,47,16.50
2016,08,20,01,48,16.50
2016,08,20,01,49,16.50
2016,08,20,01,50,16.50
2016,08,20,01,51,16.40
2016,08,20,01,52,16.40
2016,08,20,01,53,16.40
2016,08,20,01,54,16.40
2016,08,20,01,55,16.40
2016,08,20,01,56,16.40
2016,08,20,01,57,16.30
2016,08,20,01,58,16.30
2016,08,20,01,59,16.30
2016,08,20,02,00,16.30
2016,08,20,02,01,16.30
2016,08,20,02,02,16.30
2016,08,20,02,03,16.30
2016,08,20,02,04,16.20
2016,08,20,02,05,16.20
2016,08,20,02,06,16.20
2016,08,20,02,07,16.10
2016,08,20,02,08,16.10
2016,08,20,02,09,16.10
2016,08,20,02,10,16.10
2016,08,20,02,11,16.10
2016,08,20,02,12,16.00
2016,08,20,02,13,16.00
2016,08,20,02,14,16.00
2016,08,20,02,15,16.00
2016,08,20,02,16,16.00
2016,08,20,02,17,16.00
2016,08,20,02,18,16.00
2016,08,20,02,19,16.00
2016,08,20,02,20,16.00
2016,08,20,02,21,16.00
2016,08,20,02,22,16.00
2016,08,20,02,23,16.00
2016,08,20,02,24,16.00
2016,08,20,02,25,16.00
2016,08,20,02,26,16.00
2016,08,20,02,27,16.00
2016,08,20,02,28,16.00
2016,08,20,02,29,16.00
2016,08,20,02,30,15.90
2016,08,20,02,31,15.90
2016,08,20,02,32,15.90
2016,08,20,02,33,15.90
2016,08,20,02,34,15.90
2016,08,20,02,35,15.90
2016,08,20,02,36,15.80
2016,08,20,02,37,15.80
2016,08,20,02,38,15.80
2016,08,20,02,39,15.80
2016,08,20,02,40,15.80
2016,08,20,02,41,15.80
2016,08,20,02,42,15.80
2016,08,20,02,43,15.80
2016,08,20,02,44,15.70
2016,08,20,02,45,15.70
2016,08,20,02,46,15.70
2016,08,20,02,47,15.70
2016,08,20,02,48,15.70
2016,08,20,02,49,15.70
2016,08,20,02,50,15.70
2016,08,20,02,51,15.70
2016,08,20,02,52,15.70
2016,08,20,02,53,15.70
2016,08,20,02,54,15.70
2016,08,20,02,55,15.70
2016,08,20,02,56,15.60
2016,08,20,02,57,15.60
2016,08,20,02,58,15.60
2016,08,20,02,59,15.60
2016,08,20,03,00,15.60
2016,08,20,03,01,15.60
2016,08,20,03,02,15.50
2016,08,20,03,03,15.50
2016,08,20,03,04,15.50
2016,08,20,03,05,15.50
2016,08,20,03,06,15.50
2016,08,20,03,07,15.50
2016,08,20,03,08,15.50
2016,08,20,03,09,15.50
2016,08,20,03,10,15.50
2016,08,20,03,11,15.50
2016,08,20,03,12,15.50
2016,08,20,03,13,15.40
2016,08,20,03,14,15.40
2016,08,20,03,15,15.40
2016,08,20,03,16,15.40
2016,08,20,03,17,15.40
2016,08,20,03,18,15.40
2016,08,20,03,19,15.40
2016,08,20,03,20,15.40
2016,08,20,03,21,15.40
2016,08,20,03,22,15.40
2016,08,20,03,23,15.40
2016,08,20,03,24,15.40
2016,08,20,03,25,15.40
2016,08,20,03,26,15.40
2016,08,20,03,27,15.40
2016,08,20,03,28,15.40
2016,08,20,03,29,15.40
2016,08,20,03,30,15.40
2016,08,20,03,31,15.40
2016,08,20,03,32,15.40
2016,08,20,03,33,15.40
2016,08,20,03,34,15.40
2016,08,20,03,35,15.40
2016,08,20,03,36,15.40
2016,08,20,03,37,15.40
2016,08,20,03,38,15.40
2016,08,20,03,39,15.40
2016,08,20,03,40,15.40
2016,08,20,03,41,15.40
2016,08,20,03,42,15.40
2016,08,20,03,43,15.40
2016,08,20,03,44,15.40
2016,08,20,03,45,15.40
2016,08,20,03,46,15.40
2016,08,20,03,47,15.40
2016,08,20,03,48,15.40
2016,08,20,03,49,15.40
2016,08,20,03,50,15.40
2016,08,20,03,51,15.30
2016,08,20,03,52,15.40
2016,08,20,03,53,15.40
2016,08,20,03,54,15.40
2016,08,20,03,55,15.40
2016,08,20,03,56,15.40
2016,08,20,03,57,15.40
2016,08,20,03,58,15.40
2016,08,20,03,59,15.40
2016,08,20,04,00,15.40
2016,08,20,04,01,15.40
2016,08,20,04,02,15.40
2016,08,20,04,03,15.40
2016,08,20,04,04,15.30
2016,08,20,04,05,15.30
2016,08,20,04,06,15.30
2016,08,20,04,07,15.30
2016,08,20,04,08,15.30
2016,08,20,04,09,15.30
2016,08,20,04,10,15.30
2016,08,20,04,11,15.30
2016,08,20,04,12,15.20
2016,08,20,04,13,15.20
2016,08,20,04,14,15.20
2016,08,20,04,15,15.20
2016,08,20,04,16,15.20
2016,08,20,04,17,15.20
2016,08,20,04,18,15.20
2016,08,20,04,19,15.20
2016,08,20,04,20,15.20
2016,08,20,04,21,15.20
2016,08,20,04,22,15.20
2016,08,20,04,23,15.20
2016,08,20,04,24,15.20
2016,08,20,04,25,15.20
2016,08,20,04,26,15.20
2016,08,20,04,27,15.10
2016,08,20,04,28,15.10
2016,08,20,04,29,15.10
2016,08,20,04,30,15.10
2016,08,20,04,31,15.10
2016,08,20,04,32,15.10
2016,08,20,04,33,15.10
2016,08,20,04,34,15.10
2016,08,20,04,35,15.10
2016,08,20,04,36,15.10
2016,08,20,04,37,15.10
2016,08,20,04,38,15.00
2016,08,20,04,39,15.00
2016,08,20,04,40,15.00
2016,08,20,04,41,14.90
2016,08,20,04,42,14.90
2016,08,20,04,43,15.00
2016,08,20,04,44,15.00
2016,08,20,04,45,15.00
2016,08,20,04,46,15.00
2016,08,20,04,47,14.90
2016,08,20,04,48,14.90
2016,08,20,04,49,14.90
2016,08,20,04,50,14.90
2016,08,20,04,51,14.90
2016,08,20,04,52,14.90
2016,08,20,04,53,14.90
2016,08,20,04,54,14.90
2016,08,20,04,55,14.80
2016,08,20,04,56,14.80
2016,08,20,04,57,14.80
2016,08,20,04,58,14.80
2016,08,20,04,59,14.80
2016,08,20,05,00,14.80
2016,08,20,05,01,14.80
2016,08,20,05,02,14.80
2016,08,20,05,03,14.80
2016,08,20,05,04,14.80
2016,08,20,05,05,14.80
2016,08,20,05,06,14.80
2016,08,20,05,07,14.80
2016,08,20,05,08,14.80
2016,08,20,05,09,14.80
2016,08,20,05,10,14.80
2016,08,20,05,11,14.80
2016,08,20,05,12,14.80
2016,08,20,05,13,14.80
2016,08,20,05,14,14.80
2016,08,20,05,15,14.80
2016,08,20,05,16,14.80
2016,08,20,05,17,14.80
2016,08,20,05,18,14.80
2016,08,20,05,19,14.80
2016,08,20,05,20,14.80
2016,08,20,05,21,14.90
2016,08,20,05,22,14.90
2016,08,20,05,23,14.90
2016,08,20,05,24,14.90
2016,08,20,05,25,14.90
2016,08,20,05,26,14.90
2016,08,20,05,27,15.00
2016,08,20,05,28,15.00
2016,08,20,05,29,15.10
2016,08,20,05,30,15.10
2016,08,20,05,31,15.10
2016,08,20,05,32,15.20
2016,08,20,05,33,15.20
2016,08,20,05,34,15.20
2016,08,20,05,35,15.20
2016,08,20,05,36,15.20
2016,08,20,05,37,15.20
2016,08,20,05,38,15.20
2016,08,20,05,39,15.20
2016,08,20,05,40,15.10
2016,08,20,05,41,15.10
2016,08,20,05,42,15.10
2016,08,20,05,43,15.10
2016,08,20,05,44,15.10
2016,08,20,05,45,15.10
2016,08,20,05,46,15.10
2016,08,20,05,47,15.10
2016,08,20,05,48,15.10
2016,08,20,05,49,15.00
2016,08,20,05,50,15.00
2016,08,20,05,51,14.90
2016,08,20,05,52,14.90
2016,08,20,05,53,14.80
2016,08,20,05,54,14.80
2016,08,20,05,55,14.80
2016,08,20,05,56,14.80
2016,08,20,05,57,14.70
2016,08,20,05,58,14.70
2016,08,20,05,59,14.70
2016,08,20,06,00,14.70
2016,08,20,06,01,14.70
2016,08,20,06,02,14.70
2016,08,20,06,03,14.70
2016,08,20,06,04,14.60
2016,08,20,06,05,14.60
2016,08,20,06,06,14.60
2016,08,20,06,07,14.60
2016,08,20,06,08,14.60
2016,08,20,06,09,14.60
2016,08,20,06,10,14.50
2016,08,20,06,11,14.50
2016,08,20,06,12,14.50
2016,08,20,06,13,14.50
2016,08,20,06,14,14.40
2016,08,20,06,15,14.40
2016,08,20,06,16,14.40
2016,08,20,06,17,14.40
2016,08,20,06,18,14.40
2016,08,20,06,19,14.40
2016,08,20,06,20,14.30
2016,08,20,06,21,14.30
2016,08,20,06,22,14.30
2016,08,20,06,23,14.30
2016,08,20,06,24,14.30
2016,08,20,06,25,14.30
2016,08,20,06,26,14.30
2016,08,20,06,27,14.30
2016,08,20,06,28,14.30
2016,08,20,06,29,14.40
2016,08,20,06,30,14.40
2016,08,20,06,31,14.40
2016,08,20,06,32,14.40
2016,08,20,06,33,14.40
2016,08,20,06,34,14.40
2016,08,20,06,35,14.40
2016,08,20,06,36,14.40
2016,08,20,06,37,14.40
2016,08,20,06,38,14.40
2016,08,20,06,39,14.40
2016,08,20,06,40,14.40
2016,08,20,06,41,14.40
2016,08,20,06,42,14.50
2016,08,20,06,43,14.50
2016,08,20,06,44,14.50
2016,08,20,06,45,14.50
2016,08,20,06,46,14.50
2016,08,20,06,47,14.50
2016,08,20,06,48,14.50
2016,08,20,06,49,14.60
2016,08,20,06,50,14.60
2016,08,20,06,51,14.60
2016,08,20,06,52,14.60
2016,08,20,06,53,14.60
2016,08,20,06,54,14.60
2016,08,20,06,55,14.60
2016,08,20,06,56,14.60
2016,08,20,06,57,14.60
2016,08,20,06,58,14.70
2016,08,20,06,59,14.70
2016,08,20,07,00,14.70
2016,08,20,07,01,14.70
2016,08,20,07,02,14.80
2016,08,20,07,03,14.80
2016,08,20,07,04,14.90
2016,08,20,07,05,14.90
2016,08,20,07,06,14.90
2016,08,20,07,07,14.90
2016,08,20,07,08,15.00
2016,08,20,07,09,15.00
2016,08,20,07,10,15.00
2016,08,20,07,11,15.10
2016,08,20,07,12,15.10
2016,08,20,07,13,15.10
2016,08,20,07,14,15.10
2016,08,20,07,15,15.20
2016,08,20,07,16,15.20
2016,08,20,07,17,15.30
2016,08,20,07,18,15.30
2016,08,20,07,19,15.40
2016,08,20,07,20,15.60
2016,08,20,07,21,15.70
2016,08,20,07,22,15.90
2016,08,20,07,23,16.00
2016,08,20,07,24,16.20
2016,08,20,07,25,16.30
2016,08,20,07,26,16.40
2016,08,20,07,27,16.60
2016,08,20,07,28,16.70
2016,08,20,07,29,16.80
2016,08,20,07,30,16.90
2016,08,20,07,31,16.90
2016,08,20,07,32,16.90
2016,08,20,07,33,17.00
2016,08,20,07,34,17.10
2016,08,20,07,35,17.10
2016,08,20,07,36,17.20
2016,08,20,07,37,17.20
2016,08,20,07,38,17.20
2016,08,20,07,39,17.30
2016,08,20,07,40,17.30
2016,08,20,07,41,17.30
2016,08,20,07,42,17.30
2016,08,20,07,43,17.30
2016,08,20,07,44,17.40
2016,08,20,07,45,17.40
2016,08,20,07,46,17.50
2016,08,20,07,47,17.60
2016,08,20,07,48,17.70
2016,08,20,07,49,17.70
2016,08,20,07,50,17.80
2016,08,20,07,51,17.90
2016,08,20,07,52,18.00
2016,08,20,07,53,18.10
2016,08,20,07,54,18.30
2016,08,20,07,55,18.40
2016,08,20,07,56,18.50
2016,08,20,07,57,18.60
2016,08,20,07,58,18.70
2016,08,20,07,59,18.80
2016,08,20,08,00,19.00
2016,08,20,08,01,19.10
2016,08,20,08,02,19.30
2016,08,20,08,03,19.50
2016,08,20,08,04,19.80
2016,08,20,08,05,20.00
2016,08,20,08,06,20.20
2016,08,20,08,07,20.40
2016,08,20,08,08,20.50
2016,08,20,08,09,20.70
2016,08,20,08,10,20.80
2016,08,20,08,11,20.80
2016,08,20,08,12,20.80
2016,08,20,08,13,20.80
2016,08,20,08,14,20.80
2016,08,20,08,15,20.80
2016,08,20,08,16,20.80
2016,08,20,08,17,20.80
2016,08,20,08,18,20.80
2016,08,20,08,19,20.80
2016,08,20,08,20,20.80
2016,08,20,08,21,20.90
2016,08,20,08,22,20.90
2016,08,20,08,23,21.00
2016,08,20,08,24,21.00
2016,08,20,08,25,21.00
2016,08,20,08,26,21.00
2016,08,20,08,27,20.90
2016,08,20,08,28,20.90
2016,08,20,08,29,21.00
2016,08,20,08,30,21.00
2016,08,20,08,31,21.00
2016,08,20,08,32,21.10
2016,08,20,08,33,21.10
2016,08,20,08,34,21.10
2016,08,20,08,35,21.20
2016,08,20,08,36,21.20
2016,08,20,08,37,21.20
2016,08,20,08,38,21.20
2016,08,20,08,39,21.30
2016,08,20,08,40,21.40
2016,08,20,08,41,21.50
2016,08,20,08,42,21.60
2016,08,20,08,43,21.60
2016,08,20,08,44,21.60
2016,08,20,08,45,21.60
2016,08,20,08,46,21.60
2016,08,20,08,47,21.60
2016,08,20,08,48,21.70
2016,08,20,08,49,21.70
2016,08,20,08,50,21.70
2016,08,20,08,51,21.70
2016,08,20,08,52,21.70
2016,08,20,08,53,21.60
2016,08,20,08,54,21.60
2016,08,20,08,55,21.50
2016,08,20,08,56,21.50
2016,08,20,08,57,21.60
2016,08,20,08,58,21.70
2016,08,20,08,59,21.80
2016,08,20,09,00,21.80
2016,08,20,09,01,21.80
2016,08,20,09,02,21.80
2016,08,20,09,03,21.80
2016,08,20,09,04,21.80
2016,08,20,09,05,21.90
2016,08,20,09,06,22.00
2016,08,20,09,07,22.00
2016,08,20,09,08,22.10
2016,08,20,09,09,22.00
2016,08,20,09,10,21.90
2016,08,20,09,11,21.90
2016,08,20,09,12,21.80
2016,08,20,09,13,21.80
2016,08,20,09,14,21.80
2016,08,20,09,15,21.90
2016,08,20,09,16,21.90
2016,08,20,09,17,21.80
2016,08,20,09,18,21.80
2016,08,20,09,19,21.80
2016,08,20,09,20,21.90
2016,08,20,09,21,21.90
2016,08,20,09,22,22.00
2016,08,20,09,23,22.20
2016,08,20,09,24,22.20
2016,08,20,09,25,22.30
2016,08,20,09,26,22.30
2016,08,20,09,27,22.20
2016,08,20,09,28,22.20
2016,08,20,09,29,22.30
2016,08,20,09,30,22.30
2016,08,20,09,31,22.30
2016,08,20,09,32,22.30
2016,08,20,09,33,22.40
2016,08,20,09,34,22.40
2016,08,20,09,35,22.50
2016,08,20,09,36,22.50
2016,08,20,09,37,22.50
2016,08,20,09,38,22.50
2016,08,20,09,39,22.60
2016,08,20,09,40,22.60
2016,08,20,09,41,22.60
2016,08,20,09,42,22.60
2016,08,20,09,43,22.60
2016,08,20,09,44,22.60
2016,08,20,09,45,22.70
2016,08,20,09,46,22.80
2016,08,20,09,47,22.80
2016,08,20,09,48,22.80
2016,08,20,09,49,22.80
2016,08,20,09,50,22.90
2016,08,20,09,51,22.90
2016,08,20,09,52,23.00
2016,08,20,09,53,23.10
2016,08,20,09,54,23.00
2016,08,20,09,55,23.00
2016,08,20,09,56,23.00
2016,08,20,09,57,23.00
2016,08,20,09,58,23.10
2016,08,20,09,59,23.20
2016,08,20,10,00,23.30
2016,08,20,10,01,23.30
2016,08,20,10,02,23.40
2016,08,20,10,03,23.40
2016,08,20,10,04,23.50
2016,08,20,10,05,23.60
2016,08,20,10,06,23.70
2016,08,20,10,07,23.70
2016,08,20,10,08,23.70
2016,08,20,10,09,23.60
2016,08,20,10,10,23.50
2016,08,20,10,11,23.50
2016,08,20,10,12,23.40
2016,08,20,10,13,23.30
2016,08,20,10,14,23.30
2016,08,20,10,15,23.40
2016,08,20,10,16,23.40
2016,08,20,10,17,23.40
2016,08,20,10,18,23.40
2016,08,20,10,19,23.40
2016,08,20,10,20,23.40
2016,08,20,10,21,23.40
2016,08,20,10,22,23.30
2016,08,20,10,23,23.40
2016,08,20,10,24,23.40
2016,08,20,10,25,23.40
2016,08,20,10,26,23.40
2016,08,20,10,27,23.40
2016,08,20,10,28,23.30
2016,08,20,10,29,23.20
2016,08,20,10,30,23.20
2016,08,20,10,31,23.10
2016,08,20,10,32,23.10
2016,08,20,10,33,23.00
2016,08,20,10,34,23.00
2016,08,20,10,35,23.00
2016,08,20,10,36,23.00
2016,08,20,10,37,22.90
2016,08,20,10,38,22.90
2016,08,20,10,39,22.90
2016,08,20,10,40,22.90
2016,08,20,10,41,22.80
2016,08,20,10,42,22.90
2016,08,20,10,43,22.90
2016,08,20,10,44,22.90
2016,08,20,10,45,22.90
2016,08,20,10,46,22.90
2016,08,20,10,47,23.00
2016,08,20,10,48,23.10
2016,08,20,10,49,23.10
2016,08,20,10,50,23.10
2016,08,20,10,51,23.20
2016,08,20,10,52,23.30
2016,08,20,10,53,23.30
2016,08,20,10,54,23.30
2016,08,20,10,55,23.40
2016,08,20,10,56,23.40
2016,08,20,10,57,23.40
2016,08,20,10,58,23.30
2016,08,20,10,59,23.30
2016,08,20,11,00,23.30
2016,08,20,11,01,23.40
2016,08,20,11,02,23.40
2016,08,20,11,03,23.50
2016,08,20,11,04,23.50
2016,08,20,11,05,23.60
2016,08,20,11,06,23.60
2016,08,20,11,07,23.70
2016,08,20,11,08,23.70
2016,08,20,11,09,23.70
2016,08,20,11,10,23.70
2016,08,20,11,11,23.80
2016,08,20,11,12,23.80
2016,08,20,11,13,23.90
2016,08,20,11,14,23.90
2016,08,20,11,15,23.80
2016,08,20,11,16,23.80
2016,08,20,11,17,23.80
2016,08,20,11,18,23.80
2016,08,20,11,19,23.90
2016,08,20,11,20,23.90
2016,08,20,11,21,23.90
2016,08,20,11,22,23.90
2016,08,20,11,23,23.90
2016,08,20,11,24,24.00
2016,08,20,11,25,24.10
2016,08,20,11,26,24.10
2016,08,20,11,27,24.10
2016,08,20,11,28,24.10
2016,08,20,11,29,24.10
2016,08,20,11,30,24.10
2016,08,20,11,31,24.00
2016,08,20,11,32,24.00
2016,08,20,11,33,23.90
2016,08,20,11,34,23.80
2016,08,20,11,35,23.80
2016,08,20,11,36,24.00
2016,08,20,11,37,24.10
2016,08,20,11,38,24.40
2016,08,20,11,39,24.50
2016,08,20,11,40,24.60
2016,08,20,11,41,24.60
2016,08,20,11,42,24.50
2016,08,20,11,43,24.50
2016,08,20,11,44,24.50
2016,08,20,11,45,24.40
2016,08,20,11,46,24.40
2016,08,20,11,47,24.50
2016,08,20,11,48,24.50
2016,08,20,11,49,24.50
2016,08,20,11,50,24.60
2016,08,20,11,51,24.60
2016,08,20,11,52,24.60
2016,08,20,11,53,24.60
2016,08,20,11,54,24.60
2016,08,20,11,55,24.60
2016,08,20,11,56,24.60
2016,08,20,11,57,24.70
2016,08,20,11,58,24.80
2016,08,20,11,59,24.80
2016,08,20,12,00,24.80
2016,08,20,12,01,24.80
2016,08,20,12,02,24.80
2016,08,20,12,03,24.90
2016,08,20,12,04,24.90
2016,08,20,12,05,24.90
2016,08,20,12,06,25.00
2016,08,20,12,07,25.00
2016,08,20,12,08,25.00
2016,08,20,12,09,25.00
2016,08,20,12,10,24.90
2016,08,20,12,11,24.80
2016,08,20,12,12,24.80
2016,08,20,12,13,24.70
2016,08,20,12,14,24.70
2016,08,20,12,15,24.60
2016,08,20,12,16,24.60
2016,08,20,12,17,24.70
2016,08,20,12,18,24.70
2016,08,20,12,19,24.80
2016,08,20,12,20,24.80
2016,08,20,12,21,24.90
2016,08,20,12,22,24.90
2016,08,20,12,23,24.80
2016,08,20,12,24,24.80
2016,08,20,12,25,24.70
2016,08,20,12,26,24.70
2016,08,20,12,27,24.60
2016,08,20,12,28,24.60
2016,08,20,12,29,24.70
2016,08,20,12,30,24.80
2016,08,20,12,31,24.80
2016,08,20,12,32,24.80
2016,08,20,12,33,24.90
2016,08,20,12,34,24.90
2016,08,20,12,35,25.00
2016,08,20,12,36,25.00
2016,08,20,12,37,25.00
2016,08,20,12,38,25.00
2016,08,20,12,39,24.90
2016,08,20,12,40,24.80
2016,08,20,12,41,24.70
2016,08,20,12,42,24.70
2016,08,20,12,43,24.70
2016,08,20,12,44,24.80
2016,08,20,12,45,24.80
2016,08,20,12,46,24.90
2016,08,20,12,47,24.90
2016,08,20,12,48,24.90
2016,08,20,12,49,24.90
2016,08,20,12,50,25.00
2016,08,20,12,51,24.90
2016,08,20,12,52,24.90
2016,08,20,12,53,24.80
2016,08,20,12,54,24.80
2016,08,20,12,55,24.80
2016,08,20,12,56,24.80
2016,08,20,12,57,24.80
2016,08,20,12,58,24.80
2016,08,20,12,59,24.90
2016,08,20,13,00,24.90
2016,08,20,13,01,24.80
2016,08,20,13,02,24.90
2016,08,20,13,03,25.00
2016,08,20,13,04,25.10
2016,08,20,13,05,25.20
2016,08,20,13,06,25.40
2016,08,20,13,07,25.50
2016,08,20,13,08,25.60
2016,08,20,13,09,25.60
2016,08,20,13,10,25.50
2016,08,20,13,11,25.40
2016,08,20,13,12,25.30
2016,08,20,13,13,25.30
2016,08,20,13,14,25.30
2016,08,20,13,15,25.30
2016,08,20,13,16,25.10
2016,08,20,13,17,25.00
2016,08,20,13,18,25.00
2016,08,20,13,19,25.10
2016,08,20,13,20,25.10
2016,08,20,13,21,25.20
2016,08,20,13,22,25.20
2016,08,20,13,23,25.20
2016,08,20,13,24,25.30
2016,08,20,13,25,25.40
2016,08,20,13,26,25.40
2016,08,20,13,27,25.40
2016,08,20,13,28,25.50
2016,08,20,13,29,25.50
2016,08,20,13,30,25.50
2016,08,20,13,31,25.60
2016,08,20,13,32,25.50
2016,08,20,13,33,25.40
2016,08,20,13,34,25.30
2016,08,20,13,35,25.30
2016,08,20,13,36,25.30
2016,08,20,13,37,25.30
2016,08,20,13,38,25.30
2016,08,20,13,39,25.30
2016,08,20,13,40,25.40
2016,08,20,13,41,25.50
2016,08,20,13,42,25.60
2016,08,20,13,43,25.70
2016,08,20,13,44,25.70
2016,08,20,13,45,25.60
2016,08,20,13,46,25.50
2016,08,20,13,47,25.40
2016,08,20,13,48,25.40
2016,08,20,13,49,25.30
2016,08,20,13,50,25.30
2016,08,20,13,51,25.30
2016,08,20,13,52,25.30
2016,08,20,13,53,25.40
2016,08,20,13,54,25.50
2016,08,20,13,55,25.60
2016,08,20,13,56,25.60
2016,08,20,13,57,25.70
2016,08,20,13,58,25.70
2016,08,20,13,59,25.70
2016,08,20,14,00,25.60
2016,08,20,14,01,25.60
2016,08,20,14,02,25.80
2016,08,20,14,03,25.90
2016,08,20,14,04,26.00
2016,08,20,14,05,26.10
2016,08,20,14,06,26.10
2016,08,20,14,07,26.00
2016,08,20,14,08,26.00
2016,08,20,14,09,26.00
2016,08,20,14,10,26.00
2016,08,20,14,11,25.90
2016,08,20,14,12,25.80
2016,08,20,14,13,25.80
2016,08,20,14,14,25.80
2016,08,20,14,15,25.90
2016,08,20,14,16,25.90
2016,08,20,14,17,25.90
2016,08,20,14,18,25.90
2016,08,20,14,19,25.90
2016,08,20,14,20,25.90
2016,08,20,14,21,25.90
2016,08,20,14,22,25.90
2016,08,20,14,23,26.00
2016,08,20,14,24,26.20
2016,08,20,14,25,26.30
2016,08,20,14,26,26.30
2016,08,20,14,27,26.40
2016,08,20,14,28,26.30
2016,08,20,14,29,26.30
2016,08,20,14,30,26.30
2016,08,20,14,31,26.40
2016,08,20,14,32,26.60
2016,08,20,14,33,26.70
2016,08,20,14,34,26.80
2016,08,20,14,35,26.90
2016,08,20,14,36,27.00
2016,08,20,14,37,27.10
2016,08,20,14,38,27.20
2016,08,20,14,39,27.20
2016,08,20,14,40,27.10
2016,08,20,14,41,27.10
2016,08,20,14,42,27.10
2016,08,20,14,43,27.10
2016,08,20,14,44,27.10
2016,08,20,14,45,27.20
2016,08,20,14,46,27.20
2016,08,20,14,47,27.10
2016,08,20,14,48,27.10
2016,08,20,14,49,27.10
2016,08,20,14,50,27.10
2016,08,20,14,51,27.20
2016,08,20,14,52,27.30
2016,08,20,14,53,27.40
2016,08,20,14,54,27.40
2016,08,20,14,55,27.40
2016,08,20,14,56,27.50
2016,08,20,14,57,27.50
2016,08,20,14,58,27.60
2016,08,20,14,59,27.60
2016,08,20,15,00,27.70
2016,08,20,15,01,27.70
2016,08,20,15,02,27.70
2016,08,20,15,03,27.60
2016,08,20,15,04,27.60
2016,08,20,15,05,27.50
2016,08,20,15,06,27.50
2016,08,20,15,07,27.40
2016,08,20,15,08,27.30
2016,08,20,15,09,27.30
2016,08,20,15,10,27.30
2016,08,20,15,11,27.30
2016,08,20,15,12,27.30
2016,08,20,15,13,27.30
2016,08,20,15,14,27.30
2016,08,20,15,15,27.30
2016,08,20,15,16,27.30
2016,08,20,15,17,27.30
2016,08,20,15,18,27.30
2016,08,20,15,19,27.30
2016,08,20,15,20,27.40
2016,08,20,15,21,27.40
2016,08,20,15,22,27.40
2016,08,20,15,23,27.30
2016,08,20,15,24,27.30
2016,08,20,15,25,27.30
2016,08,20,15,26,27.30
2016,08,20,15,27,27.30
2016,08,20,15,28,27.30
2016,08,20,15,29,27.50
2016,08,20,15,30,27.60
2016,08,20,15,31,27.80
2016,08,20,15,32,27.90
2016,08,20,15,33,27.90
2016,08,20,15,34,27.90
2016,08,20,15,35,27.80
2016,08,20,15,36,27.80
2016,08,20,15,37,27.80
2016,08,20,15,38,27.80
2016,08,20,15,39,27.80
2016,08,20,15,40,27.80
2016,08,20,15,41,27.70
2016,08,20,15,42,27.70
2016,08,20,15,43,27.70
2016,08,20,15,44,27.70
2016,08,20,15,45,27.70
2016,08,20,15,46,27.80
2016,08,20,15,47,27.80
2016,08,20,15,48,27.80
2016,08,20,15,49,27.80
2016,08,20,15,50,27.80
2016,08,20,15,51,27.90
2016,08,20,15,52,27.90
2016,08,20,15,53,27.90
2016,08,20,15,54,27.80
2016,08,20,15,55,27.80
2016,08,20,15,56,27.80
2016,08,20,15,57,27.90
2016,08,20,15,58,28.00
2016,08,20,15,59,28.10
2016,08,20,16,00,28.20
2016,08,20,16,01,28.30
2016,08,20,16,02,28.30
2016,08,20,16,03,28.20
2016,08,20,16,04,28.10
2016,08,20,16,05,28.10
2016,08,20,16,06,28.10
2016,08,20,16,07,28.10
2016,08,20,16,08,28.10
2016,08,20,16,09,28.00
2016,08,20,16,10,28.00
2016,08,20,16,11,28.00
2016,08,20,16,12,27.90
2016,08,20,16,13,27.80
2016,08,20,16,14,27.80
2016,08,20,16,15,27.70
2016,08,20,16,16,27.70
2016,08,20,16,17,27.60
2016,08,20,16,18,27.60
2016,08,20,16,19,27.60
2016,08,20,16,20,27.60
2016,08,20,16,21,27.60
2016,08,20,16,22,27.60
2016,08,20,16,23,27.60
2016,08,20,16,24,27.70
2016,08,20,16,25,27.70
2016,08,20,16,26,27.70
2016,08,20,16,27,27.70
2016,08,20,16,28,27.80
2016,08,20,16,29,27.70
2016,08,20,16,30,27.70
2016,08,20,16,31,27.70
2016,08,20,16,32,27.70
2016,08,20,16,33,27.70
2016,08,20,16,34,27.70
2016,08,20,16,35,27.70
2016,08,20,16,36,27.70
2016,08,20,16,37,27.70
2016,08,20,16,38,27.80
2016,08,20,16,39,27.80
2016,08,20,16,40,27.70
2016,08,20,16,41,27.70
2016,08,20,16,42,27.70
2016,08,20,16,43,27.70
2016,08,20,16,44,27.70
2016,08,20,16,45,27.70
2016,08,20,16,46,27.60
2016,08,20,16,47,27.70
2016,08,20,16,48,27.70
2016,08,20,16,49,27.70
2016,08,20,16,50,27.70
2016,08,20,16,51,27.80
2016,08,20,16,52,27.80
2016,08,20,16,53,27.80
2016,08,20,16,54,27.90
2016,08,20,16,55,27.90
2016,08,20,16,56,27.90
2016,08,20,16,57,27.90
2016,08,20,16,58,27.90
2016,08,20,16,59,27.90
2016,08,20,17,00,27.90
2016,08,20,17,01,27.90
2016,08,20,17,02,27.90
2016,08,20,17,03,27.90
2016,08,20,17,04,28.00
2016,08,20,17,05,28.00
2016,08,20,17,06,28.10
2016,08,20,17,07,28.10
2016,08,20,17,08,28.10
2016,08,20,17,09,28.10
2016,08,20,17,10,28.10
2016,08,20,17,11,28.10
2016,08,20,17,12,28.10
2016,08,20,17,13,28.10
2016,08,20,17,14,28.10
2016,08,20,17,15,28.20
2016,08,20,17,16,28.10
2016,08,20,17,17,28.20
2016,08,20,17,18,28.20
2016,08,20,17,19,28.20